Location: Hurstbourne Priors
(51.2000°N, 1.3667°W)
Time: 17:10:57
(UTC+00:00)

ASTEX 1 - Pass Details

Date: 09 April 2020
Orbit: 721 x 743 km, 92.7° (Epoch: 02 June)

Event Time Altitude Azimuth Distance (km) Brightness Sun altitude
Exits shadow 21:49:59 54° 85° (E) 898 3.6 -23.9°
Maximum altitude 21:50:08 54° 78° (ENE) 896 3.6 -23.9°
Drops below altitude 10° 21:54:58 10° 2° (N) 2,250 6.6 -24.3°
Sets 21:57:18 0° 358° (N) 3,173 7.6 -24.5°
